Location: Taupo
(38.6830°S, 176.0830°E)
Time: 08:09:36
(UTC+13:00)

Meteor 2-10 Rocket - Pass Details

Date: 24 January 2019
Orbit: 733 x 885 km, 81.2° (Epoch: 19 February)

Event Time Altitude Azimuth Distance (km) Brightness Sun altitude
Rises 21:32:39 0° 340° (NNW) 3,168 6.5 -10.2°
Reaches altitude 10° 21:34:59 10° 335° (NNW) 2,265 5.8 -10.5°
Maximum altitude 21:39:58 54° 258° (WSW) 933 4.3 -11.3°
Drops below altitude 10° 21:45:11 10° 180° (S) 2,373 6.6 -12.1°
Sets 21:47:41 0° 175° (S) 3,334 7.3 -12.5°
